Tracking 30995 objects as of 5-Jul-2025
HD Live streaming from Space Station
objects crossing your sky now

COSMOS 1619

Track COSMOS 1619 now!
10-day predictions
COSMOS 1619 is classified as:


NORAD ID: 15471
Int'l Code: 1985-003C
Perigee: 1,388.3 km
Apogee: 1,420.3 km
Inclination: 82.6 °
Period: 113.7 minutes
Semi major axis: 7775 km
RCS: 1.1254 m2 (large)
Launch date: January 15, 1985
Source: Commonwealth of Independent States (former USSR) (CIS)
Launch site: PLESETSK MISSILE AND SPACE COMPLEX (PKMTR)
Your satellite tracking list
Your tracking list is empty




NASA's NSSDC Master Catalog

Two Line Element Set (TLE):
1 15471U 85003C   25186.58386374  .00000009  00000-0 -96431-5 0  9998
2 15471  82.6065 264.4600 0020612 111.6575  12.7007 12.66267315870186
Source of the keplerian elements: AFSPC